TimeCDT,TemperatureF,Dew PointF,Humidity,Sea Level PressureIn,VisibilityMPH,Wind Direction,Wind SpeedMPH,Gust SpeedMPH,PrecipitationIn,Events,Conditions,WindDirDegrees,DateUTC
12:56 AM,45.0,43.0,93,30.04,10.0,Calm,Calm,-,N/A,,Clear,0,2013-04-13 05:56:00
1:56 AM,43.9,41.0,90,30.06,10.0,NNW,4.6,-,N/A,,Clear,340,2013-04-13 06:56:00
2:56 AM,45.0,39.9,82,30.07,10.0,North,6.9,-,N/A,,Clear,350,2013-04-13 07:56:00
3:56 AM,43.9,37.9,80,30.09,10.0,North,11.5,-,N/A,,Clear,360,2013-04-13 08:56:00
4:56 AM,43.0,36.0,76,30.10,10.0,North,11.5,-,N/A,,Clear,360,2013-04-13 09:56:00
5:56 AM,41.0,34.9,79,30.12,10.0,North,3.5,-,N/A,,Clear,350,2013-04-13 10:56:00
6:56 AM,41.0,34.9,79,30.14,10.0,Calm,Calm,-,N/A,,Clear,0,2013-04-13 11:56:00
7:56 AM,45.0,36.0,71,30.16,10.0,ENE,5.8,-,N/A,,Clear,70,2013-04-13 12:56:00
8:56 AM,48.9,34.9,58,30.17,10.0,Calm,Calm,-,N/A,,Clear,0,2013-04-13 13:56:00
9:56 AM,52.9,34.9,50,30.17,10.0,Calm,Calm,-,N/A,,Clear,0,2013-04-13 14:56:00
10:56 AM,55.9,34.9,45,30.16,10.0,Calm,Calm,-,N/A,,Clear,0,2013-04-13 15:56:00
11:56 AM,59.0,34.9,40,30.15,10.0,NNE,6.9,-,N/A,,Clear,30,2013-04-13 16:56:00
12:56 PM,59.9,36.0,41,30.13,10.0,Calm,Calm,-,N/A,,Clear,0,2013-04-13 17:56:00
1:56 PM,63.9,36.9,37,30.12,9.0,Calm,Calm,-,N/A,,Clear,0,2013-04-13 18:56:00
2:56 PM,66.9,36.0,32,30.09,10.0,NNE,8.1,-,N/A,,Clear,30,2013-04-13 19:56:00
3:56 PM,68.0,36.0,31,30.07,10.0,Variable,5.8,-,N/A,,Clear,0,2013-04-13 20:56:00
4:56 PM,68.9,36.0,30,30.06,10.0,Calm,Calm,-,N/A,,Clear,0,2013-04-13 21:56:00
5:56 PM,68.0,36.9,32,30.05,10.0,Calm,Calm,-,N/A,,Clear,0,2013-04-13 22:56:00
6:56 PM,64.9,36.9,35,30.05,10.0,Calm,Calm,-,0.00,Rain,Light Rain,0,2013-04-13 23:56:00
7:56 PM,57.9,43.0,58,30.04,10.0,Calm,Calm,-,0.00,Rain,Light Rain,0,2013-04-14 00:56:00
8:56 PM,54.9,41.0,60,30.05,10.0,Calm,Calm,-,0.00,,Clear,0,2013-04-14 01:56:00
9:56 PM,53.6,41.0,62,30.04,10.0,Calm,Calm,-,N/A,,Clear,0,2013-04-14 02:56:00
10:56 PM,52.0,41.9,69,30.07,10.0,Calm,Calm,-,N/A,,Clear,0,2013-04-14 03:56:00
11:56 PM,48.9,43.0,80,30.06,10.0,Calm,Calm,-,N/A,,Clear,0,2013-04-14 04:56:00